When you browse on this site, cookies collect data to enhance your experience and personalize the content and advertising you see.
Visit our Privacy Policy to learn more. By continuing to use the site, you agree to this use of cookies and data.
  • In Lithuania
  • List of Countries
  • For 7 days
  • Water Temperature
  • Satellite Maps
  • Weather Map
  • Weather Widgets
  • user-avatar
    Login

    Hourly Weather Dyagli

    Today, 17 February, Sunday

    Time Temperature Precipitation Wind Pressure Humidity
    00:00 0°C° 0 mm 4 mps 754 mmHg 72%
    01:00 0°C° 0 mm 4 mps 754 mmHg 69%
    02:00 0°C° 0 mm 4 mps 753 mmHg 68%
    03:00 0°C° 0 mm 4 mps 753 mmHg 70%
    04:00 0°C° 0 mm 4 mps 753 mmHg 71%
    05:00 0°C° 0 mm 4 mps 752 mmHg 73%
    06:00 0°C° 0 mm 4 mps 752 mmHg 78%
    07:00 0°C° 0 mm 4 mps 752 mmHg 82%
    08:00 0°C° 0 mm 4 mps 752 mmHg 87%
    09:00 +1°C° 0 mm 5 mps 753 mmHg 84%
    10:00 +2°C° 0 mm 5 mps 753 mmHg 81%
    11:00 +5°C° 0 mm 5 mps 753 mmHg 78%
    12:00 +5°C° 0 mm 5 mps 753 mmHg 77%
    13:00 +6°C° 0 mm 5 mps 753 mmHg 75%
    14:00 +7°C° 0 mm 5 mps 753 mmHg 74%
    15:00 +7°C° 0 mm 5 mps 753 mmHg 76%
    16:00 +6°C° 0 mm 5 mps 753 mmHg 78%
    17:00 +6°C° 0 mm 4 mps 753 mmHg 81%
    18:00 +5°C° 0 mm 4 mps 754 mmHg 82%
    19:00 +5°C° 0 mm 4 mps 754 mmHg 83%
    20:00 +4°C° 0 mm 3 mps 754 mmHg 84%
    21:00 +4°C° 0 mm 3 mps 754 mmHg 85%
    22:00 +4°C° 0 mm 3 mps 754 mmHg 86%
    23:00 +3°C° 0 mm 3 mps 754 mmHg 87%

    Tomorrow, 18 February, Monday

    Time Temperature Precipitation Wind Pressure Humidity
    00:00 +4°C° 0 mm 2 mps 754 mmHg 88%
    01:00 +4°C° 0 mm 2 mps 755 mmHg 89%
    02:00 +3°C° 0 mm 2 mps 755 mmHg 90%
    03:00 +3°C° 0 mm 2 mps 755 mmHg 91%
    04:00 +3°C° 0 mm 2 mps 755 mmHg 92%
    05:00 +3°C° 0 mm 2 mps 755 mmHg 92%
    06:00 +3°C° 0 mm 2 mps 755 mmHg 93%
    07:00 +4°C° 0 mm 1 mps 755 mmHg 94%
    08:00 +3°C° 0 mm 1 mps 755 mmHg 95%
    09:00 +4°C° 0 mm 1 mps 756 mmHg 91%
    10:00 +5°C° 0 mm 1 mps 756 mmHg 88%
    11:00 +6°C° 0 mm 1 mps 756 mmHg 84%
    12:00 +6°C° 0 mm 1 mps 756 mmHg 81%
    13:00 +6°C° 0 mm 1 mps 756 mmHg 78%
    14:00 +7°C° 0 mm 1 mps 756 mmHg 75%
    15:00 +7°C° 0 mm 1 mps 756 mmHg 75%
    16:00 +7°C° 0 mm 1 mps 755 mmHg 76%
    17:00 +6°C° 0 mm 1 mps 755 mmHg 76%
    18:00 +6°C° 0 mm 1 mps 755 mmHg 80%
    19:00 +4°C° 0 mm 2 mps 755 mmHg 83%
    20:00 +3°C° 0 mm 2 mps 755 mmHg 87%
    21:00 +3°C° 0 mm 2 mps 755 mmHg 88%
    22:00 +2°C° 0 mm 2 mps 755 mmHg 89%
    23:00 +1°C° 0 mm 3 mps 755 mmHg 91%

    Day after tomorrow, 19 February, Tuesday

    Time Temperature Precipitation Wind Pressure Humidity
    00:00 +1°C° 0 mm 3 mps 755 mmHg 91%
    01:00 0°C° 0 mm 3 mps 755 mmHg 92%
    02:00 0°C° 0 mm 3 mps 755 mmHg 92%
    03:00 0°C° 0 mm 3 mps 754 mmHg 92%
    04:00 0°C° 0 mm 3 mps 754 mmHg 93%
    05:00 0°C° 0 mm 3 mps 753 mmHg 93%
    06:00 0°C° 0 mm 3 mps 753 mmHg 93%
    07:00 0°C° 0 mm 3 mps 753 mmHg 93%
    08:00 -1°C° 0 mm 4 mps 752 mmHg 93%
    09:00 0°C° 0 mm 4 mps 752 mmHg 88%
    10:00 +1°C° 0 mm 4 mps 752 mmHg 84%
    11:00 +3°C° 0 mm 5 mps 752 mmHg 79%
    12:00 +5°C° 0 mm 5 mps 751 mmHg 74%
    13:00 +6°C° 0 mm 5 mps 751 mmHg 69%
    14:00 +7°C° 0 mm 5 mps 750 mmHg 64%
    15:00 +7°C° 0 mm 4 mps 750 mmHg 65%
    16:00 +7°C° 0 mm 4 mps 749 mmHg 65%
    17:00 +6°C° 0 mm 4 mps 749 mmHg 66%
    18:00 +6°C° 0 mm 4 mps 749 mmHg 69%
    19:00 +5°C° 0 mm 4 mps 748 mmHg 71%
    20:00 +4°C° 0 mm 4 mps 748 mmHg 74%
    21:00 +4°C° 0 mm 4 mps 748 mmHg 76%
    22:00 +3°C° 0 mm 4 mps 748 mmHg 77%
    23:00 +3°C° 0 mm 4 mps 748 mmHg 79%

    20 February, Wednesday

    Time Temperature Precipitation Wind Pressure Humidity
    00:00 +3°C° 0.1 mm 4 mps 748 mmHg 82%
    01:00 +3°C° 0.1 mm 4 mps 748 mmHg 85%
    02:00 +1°C° 0.1 mm 4 mps 748 mmHg 88%
    03:00 +1°C° 0.2 mm 4 mps 748 mmHg 88%
    04:00 +1°C° 0.2 mm 4 mps 749 mmHg 89%
    05:00 +3°C° 0.2 mm 3 mps 749 mmHg 89%
    06:00 +1°C° 0 mm 4 mps 749 mmHg 89%
    07:00 +1°C° 0 mm 4 mps 749 mmHg 88%
    08:00 +1°C° 0 mm 5 mps 749 mmHg 88%
    09:00 +2°C° 0 mm 5 mps 750 mmHg 85%
    10:00 +2°C° 0 mm 6 mps 750 mmHg 83%
    11:00 +3°C° 0 mm 7 mps 750 mmHg 81%
    12:00 +3°C° 0.1 mm 7 mps 750 mmHg 78%
    13:00 +3°C° 0.1 mm 7 mps 750 mmHg 75%
    14:00 +3°C° 0.1 mm 6 mps 751 mmHg 72%
    15:00 +3°C° 0 mm 6 mps 751 mmHg 72%
    16:00 +3°C° 0 mm 6 mps 751 mmHg 72%
    17:00 +2°C° 0 mm 6 mps 751 mmHg 73%
    18:00 +2°C° 0 mm 6 mps 751 mmHg 75%
    19:00 +1°C° 0 mm 6 mps 751 mmHg 77%
    20:00 +1°C° 0 mm 6 mps 752 mmHg 79%
    21:00 +1°C° 0 mm 6 mps 752 mmHg 81%
    22:00 +1°C° 0 mm 6 mps 752 mmHg 83%
    23:00 -1°C° 0 mm 6 mps 752 mmHg 85%

    21 February, Thursday

    Time Temperature Precipitation Wind Pressure Humidity
    00:00 0°C° 0 mm 5 mps 753 mmHg 86%
    01:00 +1°C° 0 mm 5 mps 753 mmHg 87%
    02:00 +1°C° 0 mm 5 mps 753 mmHg 88%
    03:00 +1°C° 0 mm 5 mps 753 mmHg 88%
    04:00 +1°C° 0 mm 5 mps 753 mmHg 89%
    05:00 +1°C° 0 mm 5 mps 753 mmHg 90%
    06:00 +1°C° 0 mm 4 mps 754 mmHg 90%
    07:00 0°C° 0 mm 4 mps 754 mmHg 90%
    08:00 +1°C° 0 mm 3 mps 754 mmHg 91%
    09:00 +2°C° 0 mm 3 mps 754 mmHg 86%
    10:00 +2°C° 0 mm 3 mps 755 mmHg 81%
    11:00 +1°C° 0 mm 4 mps 755 mmHg 76%
    12:00 +3°C° 0 mm 3 mps 755 mmHg 73%
    13:00 +4°C° 0 mm 3 mps 755 mmHg 70%
    14:00 +4°C° 0 mm 3 mps 755 mmHg 68%
    15:00 +5°C° 0.1 mm 2 mps 755 mmHg 72%
    16:00 +5°C° 0.1 mm 2 mps 754 mmHg 76%
    17:00 +6°C° 0.1 mm 1 mps 754 mmHg 80%
    18:00 +4°C° 0.4 mm 2 mps 754 mmHg 85%
    19:00 +4°C° 0.4 mm 2 mps 754 mmHg 89%
    20:00 +4°C° 0.4 mm 2 mps 754 mmHg 93%
    21:00 +4°C° 0.4 mm 2 mps 754 mmHg 93%
    22:00 +3°C° 0.4 mm 3 mps 754 mmHg 93%
    23:00 +3°C° 0.4 mm 3 mps 753 mmHg 94%

    22 February, Friday

    Time Temperature Precipitation Wind Pressure Humidity
    00:00 +3°C° 0.2 mm 3 mps 753 mmHg 94%
    01:00 +3°C° 0.2 mm 3 mps 753 mmHg 94%
    02:00 +3°C° 0.2 mm 2 mps 753 mmHg 94%
    03:00 +3°C° 0 mm 2 mps 752 mmHg 95%
    04:00 +3°C° 0 mm 2 mps 752 mmHg 95%
    05:00 +3°C° 0 mm 2 mps 751 mmHg 96%
    06:00 +3°C° 0.5 mm 2 mps 751 mmHg 96%
    07:00 +3°C° 0.5 mm 2 mps 751 mmHg 97%
    08:00 +4°C° 0.5 mm 1 mps 751 mmHg 97%
    09:00 +3°C° 0.2 mm 2 mps 752 mmHg 96%
    10:00 +3°C° 0.2 mm 2 mps 752 mmHg 94%
    11:00 +2°C° 0.2 mm 3 mps 752 mmHg 93%
    12:00 0°C° 0.1 mm 4 mps 753 mmHg 88%
    13:00 -1°C° 0.1 mm 5 mps 754 mmHg 84%
    14:00 -3°C° 0.1 mm 6 mps 755 mmHg 80%
    15:00 -3°C° 0.1 mm 6 mps 756 mmHg 78%
    16:00 -3°C° 0.1 mm 6 mps 757 mmHg 76%
    17:00 -4°C° 0.1 mm 6 mps 758 mmHg 74%
    18:00 -4°C° 0 mm 6 mps 759 mmHg 68%
    19:00 -5°C° 0 mm 6 mps 761 mmHg 63%
    20:00 -6°C° 0 mm 6 mps 762 mmHg 58%
    21:00 -6°C° 0 mm 6 mps 763 mmHg 55%
    22:00 -6°C° 0 mm 5 mps 764 mmHg 53%
    23:00 -7°C° 0 mm 5 mps 765 mmHg 50%
    Show more